| time (UTC) | temp F | wind direction | speed MPH | gust MPH | rain 1hr in | rain 24hr in | rain mn in | humidity % | barometer mb |
| 20260504050001 | 53 | 27 | 0.0 | 0.0 | 0.00 | 0.02 | 0.02 | 92 | 1014.8 |
| 20260504044600 | 53 | 27 | 0.0 | 0.0 | 0.00 | 0.02 | 0.02 | 92 | 1014.6 |
| 20260504043104 | 52 | 27 | 0.0 | 0.0 | 0.00 | 0.02 | 0.02 | 92 | 1014.3 |
| 20260504041557 | 52 | 27 | 0.0 | 0.0 | 0.00 | 0.02 | 0.02 | 92 | 1014.2 |
| 20260504040131 | 52 | 27 | 0.0 | 0.0 | 0.00 | 0.02 | 0.02 | 91 | 1014.3 |
| 20260504034601 | 53 | 352 | 0.0 | 0.0 | 0.00 | 0.02 | 0.02 | 91 | 1014.0 |
| 20260504033056 | 53 | 352 | 0.0 | 0.0 | 0.00 | 0.02 | 0.02 | 91 | 1013.9 |
| 20260504031601 | 53 | 347 | 0.0 | 0.0 | 0.00 | 0.02 | 0.02 | 90 | 1014.0 |
| 20260504030053 | 53 | 347 | 0.0 | 0.0 | 0.00 | 0.02 | 0.02 | 90 | 1013.7 |
| 20260504024552 | 54 | 348 | 0.0 | 0.0 | 0.00 | 0.02 | 0.02 | 89 | 1013.6 |
| 20260504023052 | 54 | 347 | 0.0 | 0.0 | 0.00 | 0.02 | 0.02 | 88 | 1013.6 |
| 20260504021552 | 55 | 348 | 0.0 | 0.0 | 0.01 | 0.02 | 0.02 | 87 | 1013.6 |
| 20260504020107 | 56 | 350 | 0.0 | 0.0 | 0.01 | 0.02 | 0.02 | 88 | 1013.7 |
| 20260504014551 | 56 | 310 | 0.0 | 0.0 | 0.01 | 0.02 | 0.02 | 87 | 1013.6 |
| 20260504013051 | 56 | 314 | 0.0 | 0.0 | 0.01 | 0.02 | 0.02 | 90 | 1013.5 |
| 20260504011550 | 55 | 334 | 0.0 | 2.0 | 0.00 | 0.01 | 0.01 | 90 | 1013.7 |
| 20260504010053 | 55 | 333 | 0.0 | 2.0 | 0.00 | 0.01 | 0.01 | 91 | 1013.8 |
| 20260504004549 | 55 | 320 | 0.0 | 0.0 | 0.00 | 0.01 | 0.01 | 91 | 1013.9 |
| 20260504003051 | 55 | 340 | 0.0 | 0.0 | 0.00 | 0.01 | 0.01 | 90 | 1013.9 |
| 20260504001552 | 56 | 286 | 0.0 | 1.0 | 0.00 | 0.01 | 0.01 | 89 | 1013.7 |
| 20260504000050 | 56 | 253 | 0.0 | 0.0 | 0.00 | 0.01 | 0.01 | 90 | 1013.7 |
| 20260503234603 | 56 | 300 | 0.0 | 6.0 | 0.00 | 0.01 | 0.01 | 89 | 1013.6 |
| 20260503233050 | 56 | 303 | 0.0 | 0.0 | 0.00 | 0.01 | 0.01 | 89 | 1013.7 |
| 20260503231545 | 56 | 289 | 0.0 | 1.0 | 0.00 | 0.01 | 0.01 | 88 | 1013.6 |
| 20260503230044 | 58 | 291 | 0.0 | 3.0 | 0.00 | 0.01 | 0.01 | 86 | 1013.3 |
| 20260503224544 | 58 | 281 | 0.0 | 5.0 | 0.00 | 0.01 | 0.01 | 86 | 1013.5 |
| 20260503223043 | 58 | 228 | 0.0 | 0.0 | 0.00 | 0.01 | 0.01 | 86 | 1013.5 |
| 20260503221553 | 58 | 294 | 0.0 | 0.0 | 0.00 | 0.01 | 0.01 | 85 | 1013.5 |
| 20260503220041 | 58 | 296 | 0.0 | 0.0 | 0.00 | 0.01 | 0.01 | 86 | 1013.7 |
| 20260503214541 | 58 | 260 | 0.0 | 0.0 | 0.00 | 0.02 | 0.01 | 87 | 1013.7 |
| 20260503213042 | 57 | 241 | 0.0 | 4.0 | 0.00 | 0.02 | 0.01 | 87 | 1013.6 |
| 20260503211539 | 57 | 277 | 0.0 | 2.0 | 0.00 | 0.02 | 0.01 | 85 | 1013.6 |
| 20260503210038 | 58 | 233 | 0.0 | 1.0 | 0.00 | 0.02 | 0.01 | 85 | 1013.5 |
| 20260503204539 | 58 | 310 | 0.0 | 1.0 | 0.00 | 0.02 | 0.01 | 84 | 1013.5 |
| 20260503203049 | 57 | 247 | 0.0 | 3.0 | 0.00 | 0.02 | 0.01 | 85 | 1013.6 |
| 20260503201534 | 56 | 272 | 0.0 | 1.0 | 0.00 | 0.02 | 0.01 | 86 | 1013.7 |
| 20260503200033 | 56 | 296 | 0.0 | 3.0 | 0.00 | 0.02 | 0.01 | 86 | 1013.7 |
| 20260503194532 | 56 | 277 | 1.0 | 5.0 | 0.00 | 0.03 | 0.01 | 86 | 1013.7 |
| 20260503193032 | 57 | 277 | 0.0 | 0.0 | 0.00 | 0.03 | 0.01 | 86 | 1013.7 |
| 20260503191535 | 57 | 297 | 0.0 | 1.0 | 0.00 | 0.03 | 0.01 | 86 | 1013.8 |
| 20260503190028 | 56 | 331 | 0.0 | 0.0 | 0.00 | 0.03 | 0.01 | 86 | 1013.6 |
| 20260503184527 | 56 | 321 | 0.0 | 0.0 | 0.00 | 0.03 | 0.01 | 86 | 1013.7 |
| 20260503183025 | 56 | 282 | 0.0 | 0.0 | 0.00 | 0.03 | 0.01 | 86 | 1013.6 |
| 20260503181527 | 55 | 309 | 0.0 | 0.0 | 0.01 | 0.03 | 0.01 | 86 | 1013.8 |
| 20260503180023 | 55 | 272 | 0.0 | 4.0 | 0.01 | 0.03 | 0.01 | 87 | 1013.8 |
| 20260503174521 | 55 | 287 | 0.0 | 5.0 | 0.01 | 0.03 | 0.01 | 89 | 1013.8 |
| 20260503173022 | 55 | 296 | 0.0 | 2.0 | 0.01 | 0.03 | 0.01 | 91 | 1013.5 |
| 20260503171514 | 54 | 148 | 0.0 | 0.0 | 0.00 | 0.02 | 0.00 | 94 | 1013.3 |
| 20260503140110 | 51 | 6 | 0.0 | 0.0 | 0.00 | 0.02 | 0.00 | 96 | 1011.7 |
| 20260503081550 | 51 | 17 | 0.0 | 2.0 | 0.00 | 0.02 | 0.00 | 95 | 1011.8 |
| 20260503071603 | 52 | 4 | 0.0 | 1.0 | 0.00 | 0.02 | 0.00 | 95 | 1012.1 |